カタログに戻る

ARIANE 1 DEB

運用中HEO
NORAD 48260·DEBRIS·🇫🇷 France

打ち上げ Dec 24, 1979 から Guiana Space Centre

Loading…

次のパス (今後24時間)

TLE

最新Source: Space-Track

元期: Sep 12, 2026, 14:57 UTC

1 48260U 79104AL  26255.62295082  .00006702  00000-0  83278-3 0  9991
2 48260  23.0224  64.0711 4110007 109.1307 299.0028  7.17052576 61106

AllMySatでARIANE 1 DEBをリアルタイム追跡

Download on the App Store